Location: Bergnershof
(48.9468°N, 10.9431°E)
Time: 11:42:02
(UTC+00:00)

Cosmos 44 Rocket - Pass Details

Date: 03 March 2021
Orbit: 636 x 754 km, 65.1° (Epoch: 13 April)

Event Time Altitude Azimuth Distance (km) Brightness Sun altitude
Rises 18:20:08 0° 318° (NW) 3,211 7.5 -13.5°
Reaches altitude 10° 18:22:36 10° 312° (NW) 2,286 6.8 -13.9°
Maximum altitude 18:27:36 46° 240° (WSW) 1,006 4.5 -14.7°
Drops below altitude 10° 18:32:32 10° 169° (SSE) 2,255 5.7 -15.5°
Sets 18:34:58 0° 163° (SSE) 3,163 6.4 -15.9°
